Location: Bakov nad Jizerou
(50.4784°N, 14.9394°E)
Time: 12:43:21
(UTC+00:00)

SL-8 R/B - Pass Details

Date: 24 October 2021
Orbit: 656 x 667 km, 48.4° (Epoch: 29 November)

Event Time Altitude Azimuth Distance (km) Brightness Sun altitude
Rises 17:47:45 0° 263° (W) 2,984 8.6 -19.3°
Reaches altitude 10° 17:50:06 10° 261° (W) 2,074 7.4 -19.7°
Maximum altitude 17:54:52 71° 179° (S) 702 3.7 -20.4°
Enters shadow 17:56:01 49° 113° (ESE) 849 3.8 -20.6°
